• In Latvia
  • List of Countries
  • For 7 days
  • Water Temperature
  • Satellite Maps
  • Weather Map
  • Weather Widgets
  • user-avatar
    Login

    Hourly Weather Molepolole

    Today, 17 December, Sunday

    Time Temperature Precipitation Wind Pressure Humidity
    00:00 +25°C° 0 mm 3 mps 665 mmHg 39%
    01:00 +25°C° 0 mm 3 mps 665 mmHg 40%
    02:00 +24°C° 0 mm 3 mps 664 mmHg 41%
    03:00 +24°C° 0 mm 3 mps 664 mmHg 44%
    04:00 +22°C° 0 mm 3 mps 664 mmHg 46%
    05:00 +21°C° 0 mm 3 mps 664 mmHg 49%
    06:00 +24°C° 0 mm 3 mps 665 mmHg 45%
    07:00 +26°C° 0 mm 4 mps 665 mmHg 42%
    08:00 +27°C° 0 mm 4 mps 666 mmHg 39%
    09:00 +29°C° 0 mm 4 mps 666 mmHg 33%
    10:00 +33°C° 0 mm 5 mps 666 mmHg 27%
    11:00 +35°C° 0 mm 5 mps 667 mmHg 20%
    12:00 +36°C° 0 mm 4 mps 666 mmHg 18%
    13:00 +36°C° 0 mm 4 mps 665 mmHg 16%
    14:00 +37°C° 0 mm 4 mps 665 mmHg 14%
    15:00 +37°C° 0 mm 3 mps 664 mmHg 14%
    16:00 +37°C° 0 mm 3 mps 664 mmHg 13%
    17:00 +37°C° 0 mm 2 mps 663 mmHg 12%
    18:00 +35°C° 0 mm 3 mps 663 mmHg 14%
    19:00 +33°C° 0 mm 3 mps 663 mmHg 16%
    20:00 +30°C° 0 mm 3 mps 663 mmHg 19%
    21:00 +29°C° 0 mm 3 mps 663 mmHg 21%
    22:00 +28°C° 0 mm 3 mps 663 mmHg 23%
    23:00 +27°C° 0 mm 2 mps 663 mmHg 25%

    Tomorrow, 18 December, Monday

    Time Temperature Precipitation Wind Pressure Humidity
    00:00 +27°C° 0 mm 2 mps 663 mmHg 28%
    01:00 +26°C° 0 mm 2 mps 662 mmHg 30%
    02:00 +25°C° 0 mm 2 mps 662 mmHg 33%
    03:00 +25°C° 0 mm 2 mps 662 mmHg 32%
    04:00 +25°C° 0 mm 2 mps 662 mmHg 32%
    05:00 +24°C° 0 mm 3 mps 662 mmHg 32%
    06:00 +26°C° 0 mm 4 mps 663 mmHg 31%
    07:00 +27°C° 0 mm 5 mps 663 mmHg 30%
    08:00 +29°C° 0 mm 7 mps 664 mmHg 29%
    09:00 +32°C° 0 mm 6 mps 664 mmHg 26%
    10:00 +34°C° 0 mm 6 mps 665 mmHg 22%
    11:00 +38°C° 0 mm 6 mps 665 mmHg 19%
    12:00 +39°C° 0 mm 5 mps 664 mmHg 17%
    13:00 +38°C° 0 mm 4 mps 663 mmHg 16%
    14:00 +40°C° 0 mm 4 mps 663 mmHg 14%
    15:00 +38°C° 0 mm 3 mps 662 mmHg 15%
    16:00 +38°C° 0 mm 3 mps 662 mmHg 16%
    17:00 +37°C° 0 mm 2 mps 661 mmHg 17%
    18:00 +35°C° 0 mm 2 mps 661 mmHg 19%
    19:00 +34°C° 0 mm 2 mps 661 mmHg 20%
    20:00 +32°C° 0 mm 2 mps 661 mmHg 22%
    21:00 +31°C° 0 mm 3 mps 662 mmHg 25%
    22:00 +30°C° 0 mm 3 mps 662 mmHg 28%
    23:00 +30°C° 0 mm 3 mps 662 mmHg 31%

    Day after tomorrow, 19 December, Tuesday

    Time Temperature Precipitation Wind Pressure Humidity
    00:00 +29°C° 0 mm 3 mps 662 mmHg 33%
    01:00 +29°C° 0 mm 3 mps 662 mmHg 35%
    02:00 +28°C° 0 mm 3 mps 662 mmHg 37%
    03:00 +28°C° 0 mm 3 mps 662 mmHg 37%
    04:00 +27°C° 0 mm 3 mps 662 mmHg 37%
    05:00 +27°C° 0 mm 3 mps 662 mmHg 37%
    06:00 +28°C° 0 mm 3 mps 662 mmHg 34%
    07:00 +29°C° 0 mm 4 mps 663 mmHg 32%
    08:00 +30°C° 0 mm 4 mps 664 mmHg 29%
    09:00 +32°C° 0 mm 4 mps 664 mmHg 27%
    10:00 +33°C° 0 mm 3 mps 664 mmHg 25%
    11:00 +35°C° 0 mm 3 mps 664 mmHg 23%
    12:00 +35°C° 0 mm 3 mps 664 mmHg 23%
    13:00 +35°C° 0 mm 3 mps 663 mmHg 23%
    14:00 +35°C° 0 mm 3 mps 662 mmHg 23%
    15:00 +34°C° 0 mm 4 mps 662 mmHg 25%
    16:00 +34°C° 0 mm 4 mps 662 mmHg 26%
    17:00 +33°C° 0 mm 5 mps 661 mmHg 28%
    18:00 +32°C° 0.1 mm 4 mps 662 mmHg 31%
    19:00 +30°C° 0.1 mm 3 mps 662 mmHg 33%
    20:00 +29°C° 0.1 mm 2 mps 662 mmHg 36%
    21:00 +28°C° 0.2 mm 2 mps 662 mmHg 38%
    22:00 +28°C° 0.2 mm 2 mps 663 mmHg 41%
    23:00 +27°C° 0.2 mm 2 mps 663 mmHg 44%

    20 December, Wednesday

    Time Temperature Precipitation Wind Pressure Humidity
    00:00 +27°C° 0.1 mm 2 mps 663 mmHg 44%
    01:00 +27°C° 0.1 mm 2 mps 662 mmHg 45%
    02:00 +27°C° 0.1 mm 3 mps 662 mmHg 46%
    03:00 +26°C° 0 mm 3 mps 662 mmHg 46%
    04:00 +26°C° 0 mm 3 mps 663 mmHg 46%
    05:00 +26°C° 0 mm 4 mps 663 mmHg 46%
    06:00 +27°C° 0 mm 5 mps 663 mmHg 45%
    07:00 +27°C° 0 mm 5 mps 664 mmHg 43%
    08:00 +28°C° 0 mm 6 mps 665 mmHg 42%
    09:00 +29°C° 0 mm 6 mps 665 mmHg 40%
    10:00 +32°C° 0 mm 6 mps 665 mmHg 39%
    11:00 +33°C° 0 mm 6 mps 665 mmHg 37%
    12:00 +34°C° 0 mm 6 mps 664 mmHg 35%
    13:00 +35°C° 0 mm 5 mps 664 mmHg 32%
    14:00 +36°C° 0 mm 4 mps 664 mmHg 29%
    15:00 +35°C° 0 mm 4 mps 663 mmHg 31%
    16:00 +35°C° 0 mm 4 mps 663 mmHg 32%
    17:00 +34°C° 0 mm 4 mps 663 mmHg 34%
    18:00 +33°C° 0.4 mm 4 mps 663 mmHg 38%
    19:00 +31°C° 0.4 mm 3 mps 663 mmHg 43%
    20:00 +29°C° 0.4 mm 3 mps 663 mmHg 47%
    21:00 +28°C° 1.8 mm 3 mps 663 mmHg 54%
    22:00 +27°C° 1.8 mm 3 mps 664 mmHg 60%
    23:00 +26°C° 1.8 mm 3 mps 664 mmHg 66%

    21 December, Thursday

    Time Temperature Precipitation Wind Pressure Humidity
    00:00 +26°C° 1 mm 3 mps 664 mmHg 67%
    01:00 +25°C° 1 mm 4 mps 664 mmHg 68%
    02:00 +25°C° 1 mm 5 mps 664 mmHg 69%
    03:00 +25°C° 0.3 mm 5 mps 664 mmHg 71%
    04:00 +23°C° 0.3 mm 5 mps 664 mmHg 73%
    05:00 +23°C° 0.3 mm 5 mps 665 mmHg 75%
    06:00 +23°C° 0.2 mm 6 mps 665 mmHg 73%
    07:00 +23°C° 0.2 mm 6 mps 665 mmHg 72%
    08:00 +24°C° 0.2 mm 7 mps 666 mmHg 70%
    09:00 +26°C° 0.4 mm 7 mps 666 mmHg 65%
    10:00 +26°C° 0.4 mm 7 mps 666 mmHg 61%
    11:00 +27°C° 0.4 mm 6 mps 665 mmHg 56%
    12:00 +28°C° 0 mm 6 mps 665 mmHg 52%
    13:00 +29°C° 0 mm 6 mps 665 mmHg 48%
    14:00 +30°C° 0 mm 5 mps 664 mmHg 44%
    15:00 +32°C° 0 mm 5 mps 664 mmHg 43%
    16:00 +32°C° 0 mm 5 mps 664 mmHg 42%
    17:00 +32°C° 0 mm 4 mps 663 mmHg 41%
    18:00 +30°C° 0 mm 4 mps 663 mmHg 44%
    19:00 +29°C° 0 mm 3 mps 663 mmHg 46%
    20:00 +28°C° 0 mm 3 mps 663 mmHg 49%
    21:00 +28°C° 0.1 mm 3 mps 663 mmHg 51%
    22:00 +27°C° 0.1 mm 3 mps 663 mmHg 54%
    23:00 +26°C° 0.1 mm 3 mps 663 mmHg 56%

    22 December, Friday

    Time Temperature Precipitation Wind Pressure Humidity
    00:00 +26°C° 0.5 mm 3 mps 663 mmHg 60%
    01:00 +25°C° 0.5 mm 3 mps 663 mmHg 63%
    02:00 +25°C° 0.5 mm 4 mps 662 mmHg 67%
    03:00 +23°C° 0.3 mm 4 mps 662 mmHg 68%
    04:00 +23°C° 0.3 mm 4 mps 662 mmHg 69%
    05:00 +23°C° 0.3 mm 5 mps 662 mmHg 70%
    06:00 +22°C° 1.3 mm 5 mps 663 mmHg 72%
    07:00 +22°C° 1.3 mm 5 mps 663 mmHg 75%
    08:00 +22°C° 1.3 mm 5 mps 664 mmHg 77%
    09:00 +22°C° 2.5 mm 4 mps 663 mmHg 78%
    10:00 +22°C° 2.5 mm 4 mps 663 mmHg 80%
    11:00 +22°C° 2.5 mm 3 mps 663 mmHg 81%
    12:00 +23°C° 0.7 mm 4 mps 662 mmHg 77%
    13:00 +25°C° 0.7 mm 4 mps 662 mmHg 73%
    14:00 +26°C° 0.7 mm 4 mps 662 mmHg 69%
    15:00 +26°C° 0.2 mm 4 mps 661 mmHg 69%
    16:00 +25°C° 0.2 mm 3 mps 661 mmHg 69%
    17:00 +25°C° 0.2 mm 3 mps 661 mmHg 69%
    18:00 +25°C° 0 mm 2 mps 661 mmHg 72%
    19:00 +24°C° 0 mm 2 mps 661 mmHg 75%
    20:00 +24°C° 0 mm 1 mps 661 mmHg 78%
    21:00 +21°C° 0 mm 0 mps 661 mmHg 78%
    22:00 +21°C° 0 mm 0 mps 661 mmHg 79%
    23:00 +21°C° 0 mm 0 mps 661 mmHg 79%
    Show more